Cosmos 1633 - Orbit

View from above orbital plane
View from above orbital plane
View from above satellite
View from above satellite

Ground track
Ground track

The orbit data is extracted from the following two-line orbital elements,

1 15592U 85020A   13168.83512807  .00002225  00000-0  11860-3 0  1891
2 15592 082.5418 329.2721 0018297 253.1061 224.6497 15.14550409542079
Epoch (UTC): 17 June 2013 20:02:35
Eccentricity: 0.0018297
inclination: 82.5418°
perigee height: 510 km
apogee height: 535 km
right ascension of ascending node: 329.2721°
argument of perigee: 253.1061°
revolutions per day: 15.14550409
mean anomaly at epoch: 224.6497°
orbit number at epoch: 54207

The dashed part of the orbit path shows where the satellite is in the earth's shadow,  

Developed and maintained by Chris Peat, Heavens-Above GmbH. Please read the updated FAQ before sending e-mail. Imprint. DLR